dad

STFU

Home - Forums - Media

Pacifist File Dump
Serving 3349 files totalling 12626.92M in size from 116 uploaders with 12592276 views!

You must be logged into the forums and have access to private forums to upload files.

Search
Search String:
Include Descriptions? Yes
Author:
Type:

1965 files found

Type Name Description Author Size Date Views Public
Image VoidYawn Vanstrider 501.94K 2007-05-05 21:32:00 3863 Yes
Image Tidewalker Kill Shot grafarion 47.7K 2007-05-03 23:40:54 3842 Yes
Image PACIFIST WINZZ THIS IS PACIFIST WINZING AGAINST TIDEWALKER Wheelchair 128.81K 2007-05-03 22:27:57 3862 Yes
Image Fathom-Lord slain Arkaine 71.87K 2007-05-02 21:24:22 3929 Yes
Image Lurker is dead Vanstrider 271.93K 2007-05-02 21:22:41 3860 Yes
Image lurker ss (better than van's ss) Sophitia 658.54K 2007-05-02 21:13:02 3782 Yes
Image Fathomlord dead smaller Hocken 94.24K 2007-05-02 21:12:35 3783 Yes
Image Fathomlord dead Hocken 310.64K 2007-05-02 21:12:23 3823 Yes
Movie rapportus quits GSA Hocken 3.70M 2007-05-01 00:53:30 3781 Yes
Image Mugen Ui New Ultema 276.82K 2007-04-24 22:09:49 3876 Yes
Image Mugen Ui Old Ultema 202.06K 2007-04-24 22:09:26 3850 Yes
Image Vanstrider UI Vanstrider 1.07M 2007-04-24 00:29:54 3780 Yes
Image Nerf Vanstrider Vanstrider 595.00K 2007-04-19 23:52:18 3780 Yes
Image doomwalker doomwalker on black temple test realm Sophitia 288.08K 2007-04-18 14:28:35 3780 Yes
Image East again Vanstrider 204.60K 2007-04-16 14:10:24 3779 Yes
Image Cont East Vanstrider 142.29K 2007-04-16 14:09:16 3779 Yes
Image East entrance Vanstrider 145.45K 2007-04-16 14:08:13 3780 Yes
Image North Entrance Vanstrider 150.27K 2007-04-16 14:07:30 3780 Yes
Image West entrance Vanstrider 161.31K 2007-04-16 14:06:26 3781 Yes
Image Ashtongue nerd Vanstrider 259.56K 2007-04-16 14:05:48 3778 Yes
Image Healing ring 2 Vanstrider 297.22K 2007-04-16 14:04:52 3779 Yes
Image healing ring Vanstrider 298.42K 2007-04-16 14:04:07 3787 Yes
Image Healing Neck Vanstrider 291.82K 2007-04-16 14:03:17 3780 Yes
Image 1h healing mace Vanstrider 289.47K 2007-04-16 14:02:12 3787 Yes
Image Pally T5 Sexyness Vanstrider 152.56K 2007-04-16 14:01:18 3779 Yes
Image The Rulkster! Vanstrider 327.12K 2007-04-16 13:59:58 3780 Yes
Image 9crits in a row Joink 391.72K 2007-04-15 23:07:48 3790 Yes
Movie NewArena.wmv New arena in 2.1 patch Joink 14.85M 2007-04-13 15:18:32 3791 Yes
Image nether drake quest Sophitia 223.16K 2007-04-13 13:45:04 3780 Yes
Image nether ray mount lol Sophitia 213.32K 2007-04-13 13:41:15 3786 Yes
Image Arena Loots 3 Vanstrider 363.86K 2007-04-13 11:18:35 3799 Yes
Image Arena Loots 2 Vanstrider 357.97K 2007-04-13 11:17:45 3784 Yes
Image Arena Loots 1 Vanstrider 356.28K 2007-04-13 11:16:50 3790 Yes
Image Badge Loot 8 Vanstrider 333.83K 2007-04-13 11:10:31 3780 Yes
Image Badge loot 7 Vanstrider 334.82K 2007-04-13 11:08:53 3780 Yes
Image Badge loot 6 Vanstrider 337.93K 2007-04-13 11:08:07 3779 Yes
Image Badge loot 5 Vanstrider 322.50K 2007-04-13 11:07:27 3782 Yes
Image Badge loot 4 Vanstrider 339.55K 2007-04-13 11:06:38 3781 Yes
Image badge loot 3 Vanstrider 338.40K 2007-04-13 11:05:33 3781 Yes
Image Badge Loot 2 Vanstrider 349.01K 2007-04-13 11:04:42 3783 Yes
Image Badge Loot 1 Vanstrider 347.46K 2007-04-13 11:03:01 3779 Yes
Image LOOKOUT A FERAL KITTY Hocken 141.31K 2007-03-30 16:09:13 3788 Yes
Image U I Joink 268.90K 2007-03-29 22:18:30 3792 Yes
Image My UI Hocken 553.43K 2007-03-29 20:31:40 3788 Yes
Image Magtheridon dead smaller Hocken 85.00K 2007-03-29 19:19:50 3780 Yes
Image Magtheridon dead Hocken 199.47K 2007-03-29 19:19:33 3836 Yes
Image Magtheridon bugged smaller Hocken 121.09K 2007-03-29 06:22:56 3780 Yes
Image Magtheridon bugged thx 4 dis bz Hocken 436.47K 2007-03-29 06:22:44 3820 Yes
Image Hydross dead smaller Hocken 85.04K 2007-03-29 06:22:20 3781 Yes
Image Hydross dead Hocken 219.47K 2007-03-29 06:22:08 3847 Yes
Image soph ui Sophitia 1.01M 2007-03-28 03:34:39 3781 Yes
Image lambda griefed Sophitia 11.12K 2007-03-20 02:28:21 3830 Yes
Image Gruul meters Hocken 197.90K 2007-02-28 20:54:31 3789 Yes
Image Gruul dead smaller Hocken 102.92K 2007-02-28 20:54:16 3780 Yes
Image Gruul dead OH MY GOD SERVER SECOND /gdisband Hocken 263.82K 2007-02-28 20:53:57 3876 Yes
Image sdfs Davie 55.06K 2007-02-23 11:16:41 3785 Yes
Image Nightbane dead Hocken 102.85K 2007-02-18 23:47:01 3781 Yes
Image Nightbane Solanthanius 60.54K 2007-02-18 22:34:02 3785 Yes
Other Gatherer Nodes Lots of lower level Ore Locations in Duskwood, 1KN, other places. Rename to Gatherer.lua Lesale 102.23K 2007-02-17 14:44:37 3781 Yes
Image now Davie 168.65K 2007-02-07 13:58:33 3788 Yes
Image BEMAGE Davie 136.97K 2007-02-07 13:57:58 3785 Yes
Image dAvie Davie 84.86K 2007-02-07 13:57:18 3795 Yes
Image Gruul2.jpg Joink 180.34K 2007-02-06 20:41:46 3804 Yes
Image Gruul1.jpg Joink 174.36K 2007-02-06 20:41:25 3780 Yes
Image karazhan Solanthanius 115.57K 2007-02-04 00:32:09 3789 Yes
Image @@ Davie 164.88K 2007-01-29 22:23:11 3799 Yes
Other Patched war3.exe Spheric 1.57M 2007-01-23 03:18:03 3821 Yes
Image Elemental TD 196k Sitizen 15.46K 2007-01-19 15:02:15 3783 Yes
Image TBC - CE, Holiday Screenshot prize grats all, card says: "Congratulations on winning the holiday contest!" Hocken 247.57K 2007-01-17 10:48:36 3898 Yes
Image ui Davie 140.85K 2007-01-12 20:37:43 3800 Yes
Image 3v1 Owning some noobs 3v1 in the arena Mavlikan 365.31K 2007-01-11 14:05:32 3781 Yes
Other Sea and Chronos No error on load Hocken 61.63K 2007-01-10 16:58:20 3783 Yes
Image asda Davie 205.29K 2007-01-02 20:38:03 3779 Yes
Image TBC Endgame Diagram Katithra 283.03K 2007-01-02 09:52:06 3797 Yes
Image asdf lil_monsta 40.86K 2006-12-30 06:00:16 3794 Yes
Page:
1 2 3 4 5 6 7 8 9 10 11 12 13 14 15 16 17 18 19 20 21 22 23 24 25 26 27